BAW4CK EGHQ-EICK

Flight info

Callsign BAW4CK
Flight time 0h 36m
Altitude 24000
Route EVCOR N160 LEDGO DCT ERTER ERTER1R
Aircraft A319/M-SDE3FGHIRWY/LB1

Departure

Time 2026-04-24 11:25
Airport Cornwall Airport Newquay (EGHQ)

Arrival

Time 2026-04-24 12:01
Airport Cork International Airport (EICK)
Time Latitude Longitude Altitude Speed Heading
2026-04-24 11:04 50.44711 -5.00533 316 ft 0 kts 76°
2026-04-24 11:19 50.44705 -5.00568 315 ft 3 kts 76°
2026-04-24 11:19 50.44693 -5.00603 314 ft 3 kts 35°
2026-04-24 11:19 50.44669 -5.00608 314 ft 3 kts 342°
2026-04-24 11:19 50.44656 -5.00595 315 ft 0 kts 313°
2026-04-24 11:20 50.44656 -5.00596 315 ft 0 kts 313°
2026-04-24 11:21 50.44657 -5.00596 315 ft 0 kts 313°
2026-04-24 11:22 50.44664 -5.00609 314 ft 2 kts 313°
2026-04-24 11:22 50.44682 -5.00637 314 ft 4 kts 314°
2026-04-24 11:22 50.44710 -5.00688 313 ft 8 kts 304°
2026-04-24 11:22 50.44747 -5.00781 311 ft 12 kts 301°
2026-04-24 11:23 50.44795 -5.00909 308 ft 15 kts 294°
2026-04-24 11:23 50.44788 -5.01081 305 ft 17 kts 234°
2026-04-24 11:23 50.44697 -5.01173 303 ft 13 kts 169°
2026-04-24 11:23 50.44664 -5.01095 305 ft 0 kts 121°
2026-04-24 11:24 50.44643 -5.01039 305 ft 30 kts 120°
2026-04-24 11:24 50.44413 -5.00418 321 ft 99 kts 120°
2026-04-24 11:25 50.43944 -4.99235 414 ft 148 kts 125°
2026-04-24 11:25 50.43341 -4.97953 1080 ft 146 kts 124°
2026-04-24 11:25 50.42762 -4.96726 1898 ft 141 kts 125°
2026-04-24 11:25 50.42185 -4.95528 2483 ft 145 kts 126°
2026-04-24 11:26 50.41539 -4.94206 2887 ft 160 kts 127°
2026-04-24 11:26 50.40890 -4.92745 3375 ft 170 kts 116°
2026-04-24 11:26 50.40680 -4.90842 3791 ft 193 kts 86°
2026-04-24 11:26 50.41195 -4.88789 4313 ft 216 kts 58°
2026-04-24 11:27 50.42362 -4.87214 4921 ft 237 kts 31°
2026-04-24 11:27 50.44003 -4.86498 5551 ft 256 kts
2026-04-24 11:27 50.45819 -4.86876 6092 ft 278 kts 342°
2026-04-24 11:27 50.47572 -4.88227 6757 ft 291 kts 331°
2026-04-24 11:28 50.49199 -4.90143 7598 ft 296 kts 310°
2026-04-24 11:28 50.50189 -4.92916 8496 ft 297 kts 287°
2026-04-24 11:28 50.50752 -4.95996 9390 ft 299 kts 284°
2026-04-24 11:28 50.51335 -4.99137 10248 ft 302 kts 287°
2026-04-24 11:29 50.52025 -5.02281 10925 ft 312 kts 289°
2026-04-24 11:29 50.52825 -5.05485 11361 ft 329 kts 291°
2026-04-24 11:29 50.53748 -5.08880 11726 ft 348 kts 293°
2026-04-24 11:29 50.54756 -5.12424 12141 ft 365 kts 294°
2026-04-24 11:30 50.55828 -5.16103 12708 ft 374 kts 294°
2026-04-24 11:30 50.56914 -5.19791 13478 ft 377 kts 294°
2026-04-24 11:30 50.58024 -5.23545 14238 ft 380 kts 295°
2026-04-24 11:30 50.59132 -5.27281 14966 ft 382 kts 294°
2026-04-24 11:31 50.60250 -5.31052 15649 ft 385 kts 294°
2026-04-24 11:31 50.61386 -5.34890 16387 ft 387 kts 294°
2026-04-24 11:31 50.62507 -5.38685 17061 ft 389 kts 294°
2026-04-24 11:31 50.63650 -5.42558 17697 ft 391 kts 294°
2026-04-24 11:32 50.65169 -5.47718 18524 ft 395 kts 294°
2026-04-24 11:32 50.65944 -5.50354 18930 ft 396 kts 293°
2026-04-24 11:32 50.67097 -5.54287 19526 ft 399 kts 293°
2026-04-24 11:32 50.68250 -5.58218 20090 ft 402 kts 293°
2026-04-24 11:33 50.69423 -5.62225 20640 ft 405 kts 293°
2026-04-24 11:33 50.70608 -5.66285 21166 ft 408 kts 292°
2026-04-24 11:33 50.71797 -5.70364 21687 ft 411 kts 292°
2026-04-24 11:33 50.72982 -5.74435 22196 ft 414 kts 292°
2026-04-24 11:34 50.74171 -5.78529 22689 ft 417 kts 292°
2026-04-24 11:34 50.75388 -5.82724 23159 ft 420 kts 292°
2026-04-24 11:34 50.76606 -5.86930 23629 ft 423 kts 292°
2026-04-24 11:34 50.77815 -5.91112 24055 ft 425 kts 292°
2026-04-24 11:35 50.79041 -5.95361 24186 ft 426 kts 292°
2026-04-24 11:35 50.80268 -5.99618 24188 ft 425 kts 292°
2026-04-24 11:35 50.81475 -6.03816 24190 ft 425 kts 292°
2026-04-24 11:35 50.82697 -6.08074 24186 ft 425 kts 292°
2026-04-24 11:36 50.83919 -6.12337 24188 ft 426 kts 292°
2026-04-24 11:36 50.85128 -6.16562 24189 ft 426 kts 292°
2026-04-24 11:36 50.86354 -6.20860 24189 ft 426 kts 292°
2026-04-24 11:36 50.87563 -6.25099 24191 ft 427 kts 291°
2026-04-24 11:37 50.88780 -6.29375 24187 ft 427 kts 291°
2026-04-24 11:37 50.89999 -6.33668 24185 ft 428 kts 291°
2026-04-24 11:37 50.91201 -6.37913 24186 ft 428 kts 291°
2026-04-24 11:37 50.92410 -6.42188 24184 ft 428 kts 291°
2026-04-24 11:38 50.93631 -6.46511 24183 ft 429 kts 292°
2026-04-24 11:38 50.94844 -6.50818 24183 ft 429 kts 292°
2026-04-24 11:38 50.96055 -6.55123 24180 ft 430 kts 292°
2026-04-24 11:38 50.97270 -6.59450 24176 ft 430 kts 292°
2026-04-24 11:39 50.98469 -6.63727 23961 ft 429 kts 292°
2026-04-24 11:39 50.99670 -6.68017 23661 ft 427 kts 291°
2026-04-24 11:39 51.00872 -6.72318 23412 ft 426 kts 291°
2026-04-24 11:39 51.02076 -6.76640 23166 ft 425 kts 291°
2026-04-24 11:40 51.03258 -6.80886 22917 ft 424 kts 291°
2026-04-24 11:40 51.04438 -6.85133 22671 ft 423 kts 291°
2026-04-24 11:40 51.05622 -6.89405 22423 ft 422 kts 291°
2026-04-24 11:40 51.06809 -6.93693 22177 ft 421 kts 291°
2026-04-24 11:41 51.07978 -6.97928 21936 ft 421 kts 291°
2026-04-24 11:41 51.09142 -7.02152 21693 ft 420 kts 291°
2026-04-24 11:41 51.10310 -7.06394 21446 ft 420 kts 291°
2026-04-24 11:41 51.11473 -7.10627 21204 ft 419 kts 291°
2026-04-24 11:42 51.12629 -7.14839 20960 ft 418 kts 291°
2026-04-24 11:42 51.13797 -7.19109 20711 ft 417 kts 291°
2026-04-24 11:42 51.14938 -7.23285 20468 ft 416 kts 291°
2026-04-24 11:42 51.16083 -7.27484 20222 ft 415 kts 291°
2026-04-24 11:43 51.17229 -7.31697 19974 ft 413 kts 292°
2026-04-24 11:43 51.18362 -7.35870 19728 ft 412 kts 292°
2026-04-24 11:43 51.19487 -7.40024 19483 ft 411 kts 292°
2026-04-24 11:43 51.20618 -7.44205 19232 ft 410 kts 292°
2026-04-24 11:44 51.21738 -7.48351 18985 ft 409 kts 292°
2026-04-24 11:44 51.22873 -7.52474 18736 ft 408 kts 295°
2026-04-24 11:44 51.24284 -7.56362 18489 ft 408 kts 304°
2026-04-24 11:44 51.26040 -7.59879 18241 ft 407 kts 313°
2026-04-24 11:45 51.28058 -7.63075 17998 ft 406 kts 316°
2026-04-24 11:45 51.30110 -7.66151 17750 ft 405 kts 316°
2026-04-24 11:45 51.32147 -7.69187 17508 ft 404 kts 316°
2026-04-24 11:45 51.34210 -7.72284 17252 ft 403 kts 316°
2026-04-24 11:46 51.36228 -7.75335 17016 ft 402 kts 316°
2026-04-24 11:46 51.38231 -7.78377 16774 ft 401 kts 316°
2026-04-24 11:46 51.40246 -7.81449 16521 ft 400 kts 316°
2026-04-24 11:46 51.42250 -7.84511 16279 ft 398 kts 316°
2026-04-24 11:47 51.44243 -7.87564 16029 ft 398 kts 316°
2026-04-24 11:47 51.46245 -7.90635 15760 ft 396 kts 316°
2026-04-24 11:47 51.48224 -7.93677 15468 ft 395 kts 316°
2026-04-24 11:47 51.50192 -7.96703 15079 ft 393 kts 316°
2026-04-24 11:48 51.52148 -7.99715 14624 ft 391 kts 316°
2026-04-24 11:48 51.54111 -8.02738 14119 ft 391 kts 316°
2026-04-24 11:48 51.56194 -8.05490 13611 ft 390 kts 325°
2026-04-24 11:48 51.58519 -8.07694 13108 ft 389 kts 334°
2026-04-24 11:49 51.60946 -8.09485 12590 ft 388 kts 337°
2026-04-24 11:49 51.63434 -8.11213 12068 ft 388 kts 338°
2026-04-24 11:49 51.65904 -8.12921 11538 ft 388 kts 338°
2026-04-24 11:49 51.68346 -8.14630 11046 ft 386 kts 338°
2026-04-24 11:50 51.70785 -8.16353 10739 ft 378 kts 337°
2026-04-24 11:50 51.73159 -8.18043 10507 ft 368 kts 337°
2026-04-24 11:50 51.75440 -8.19673 10301 ft 358 kts 337°
2026-04-24 11:50 51.77696 -8.21289 10172 ft 347 kts 337°
2026-04-24 11:51 51.79841 -8.22827 10005 ft 337 kts 337°
2026-04-24 11:51 51.81987 -8.24367 9742 ft 333 kts 338°
2026-04-24 11:51 51.84069 -8.25862 9473 ft 328 kts 338°
2026-04-24 11:51 51.86149 -8.27355 9210 ft 324 kts 338°
2026-04-24 11:52 51.88171 -8.28809 8955 ft 319 kts 338°
2026-04-24 11:52 51.90192 -8.30263 8702 ft 315 kts 338°
2026-04-24 11:52 51.92164 -8.31685 8458 ft 311 kts 338°
2026-04-24 11:52 51.94134 -8.33108 8216 ft 307 kts 338°
2026-04-24 11:53 51.96030 -8.34480 7835 ft 298 kts 338°
2026-04-24 11:53 51.97896 -8.35830 7406 ft 289 kts 338°
2026-04-24 11:53 51.99700 -8.37138 6971 ft 282 kts 338°
2026-04-24 11:53 52.01460 -8.38413 6566 ft 274 kts 339°
2026-04-24 11:54 52.03168 -8.39653 6340 ft 264 kts 339°
2026-04-24 11:54 52.04795 -8.40836 6254 ft 253 kts 339°
2026-04-24 11:54 52.06345 -8.42036 6196 ft 244 kts 329°
2026-04-24 11:54 52.07413 -8.44051 6148 ft 232 kts 286°
2026-04-24 11:55 52.07475 -8.46532 5933 ft 216 kts 245°
2026-04-24 11:55 52.06897 -8.48719 5767 ft 207 kts 236°
2026-04-24 11:55 52.06261 -8.50778 5585 ft 205 kts 237°
2026-04-24 11:55 52.05669 -8.52871 5376 ft 205 kts 239°
2026-04-24 11:56 52.05120 -8.55018 5069 ft 210 kts 242°
2026-04-24 11:56 52.04581 -8.57259 4711 ft 218 kts 243°
2026-04-24 11:56 52.03944 -8.59477 4397 ft 215 kts 223°
2026-04-24 11:56 52.02752 -8.60639 4073 ft 196 kts 178°
2026-04-24 11:57 52.01488 -8.60168 3792 ft 188 kts 150°
2026-04-24 11:57 52.00311 -8.59176 3503 ft 191 kts 150°
2026-04-24 11:57 51.99105 -8.58249 3207 ft 196 kts 153°
2026-04-24 11:57 51.97857 -8.57388 2997 ft 195 kts 154°
2026-04-24 11:58 51.96610 -8.56585 2835 ft 189 kts 155°
2026-04-24 11:58 51.95427 -8.55851 2626 ft 176 kts 155°
2026-04-24 11:58 51.94319 -8.55178 2437 ft 165 kts 154°
2026-04-24 11:58 51.93265 -8.54543 2198 ft 156 kts 154°
2026-04-24 11:59 51.92279 -8.53955 1987 ft 146 kts 154°
2026-04-24 11:59 51.91358 -8.53411 1797 ft 136 kts 153°
2026-04-24 11:59 51.90503 -8.52905 1612 ft 128 kts 153°
2026-04-24 11:59 51.89675 -8.52408 1450 ft 127 kts 153°
2026-04-24 12:00 51.88844 -8.51910 1284 ft 127 kts 153°
2026-04-24 12:00 51.88027 -8.51420 1121 ft 126 kts 153°
2026-04-24 12:00 51.87206 -8.50932 951 ft 126 kts 153°
2026-04-24 12:00 51.86380 -8.50441 794 ft 126 kts 154°
2026-04-24 12:01 51.85558 -8.49979 640 ft 124 kts 153°
2026-04-24 12:01 51.84743 -8.49502 506 ft 124 kts 153°
2026-04-24 12:01 51.84099 -8.49098 479 ft 59 kts 161°
2026-04-24 12:01 51.83872 -8.48970 472 ft 27 kts 176°
2026-04-24 12:02 51.83843 -8.48943 472 ft 7 kts 348°
2026-04-24 12:02 51.83923 -8.48988 473 ft 14 kts 340°
2026-04-24 12:02 51.84038 -8.49054 476 ft 19 kts 340°
2026-04-24 12:02 51.84173 -8.49138 481 ft 19 kts 338°
2026-04-24 12:03 51.84300 -8.49157 486 ft 18 kts 39°
2026-04-24 12:03 51.84355 -8.49020 492 ft 8 kts 39°
2026-04-24 12:03 51.84422 -8.49006 494 ft 14 kts 345°
2026-04-24 12:03 51.84564 -8.49090 498 ft 25 kts 339°
2026-04-24 12:04 51.84729 -8.49176 503 ft 20 kts 345°
2026-04-24 12:04 51.84835 -8.49100 510 ft 14 kts 71°
2026-04-24 12:04 51.84843 -8.49063 512 ft 0 kts 66°